Location: Hesters Ferry
(33.9426°N, 82.5501°W)
Time: 20:01:13
(UTC+00:00)

ARIANE 6 FM1 Upper Stage - Pass Details

Date: 15 June 2025
Orbit: 528 x 612 km, 62.0° (Epoch: 20 July)

Event Time Altitude Azimuth Distance (km) Brightness Sun altitude
Rises 01:56:40 0° 340° (NNW) 2,730 7.3 -13.4°
Reaches altitude 10° 01:59:10 10° 354° (N) 1,848 6.0 -13.8°
Maximum altitude 02:02:39 25° 51° (NE) 1,154 4.2 -14.4°
Enters shadow 02:04:44 18° 92° (E) 1,448 4.3 -14.7°
